Location: Cheching
(60.0667°N, 164.2167°W)
Time: 11:44:25
(UTC+00:00)

UNISAT 6 - Pass Details

Date: 17 January 2021
Orbit: 607 x 687 km, 97.7° (Epoch: 24 February)

Event Time Altitude Azimuth Distance (km) Brightness Sun altitude
Rises 15:09:29 0° 99° (E) 2,879 ? -32.3°
Reaches altitude 10° 15:12:35 10° 74° (ENE) 1,986 ? -31.9°
Maximum altitude 15:14:47 14° 43° (NE) 1,747 ? -31.7°
Drops below altitude 10° 15:17:01 10° 12° (NNE) 2,008 ? -31.4°
Enters shadow 15:17:36 - 6° (N) 2,147 ? -31.3°
